EA1M Weather Reports


time (UTC)temp
C
wind
direction
speed
KPH
gust
KPH
rain 1hr
cm
rain 24hr
cm
rain mn
cm
humidity
%
barometer
mb
20260507015037 10 124 3.2 9.7 0.00 0.33 0.00 93 1013.5
20260507014101 10 93 3.2 4.8 0.00 0.33 0.00 92 1013.5
20260507013021 10 85 1.6 3.2 0.00 0.33 0.00 92 1013.6
20260507012105 10 84 1.6 4.8 0.00 0.36 0.00 92 1013.7
20260507011109 10 79 0.0 1.6 0.00 0.38 0.00 91 1013.7
20260507010029 10 78 1.6 3.2 0.00 0.38 0.00 91 1013.8
20260507005053 10 71 0.0 1.6 0.00 0.38 0.00 91 1013.8
20260507004023 11 81 0.0 3.2 0.00 0.38 0.00 90 1013.9
20260507003037 11 81 1.6 3.2 0.00 0.38 0.00 90 1014.0
20260507002101 11 41 0.0 1.6 0.00 0.38 0.00 89 1014.0
20260507001021 11 0.0 0.0 0.00 0.38 0.00 89 1014.1
20260507000046 11 0.0 0.0 0.00 0.38 0.00 88 1014.1
20260506235129 11 0.0 0.0 0.00 0.38 0.00 88 1014.2
20260506234029 12 0.0 0.0 0.00 0.38 0.00 87 1014.2
20260506233053 11 42 0.0 1.6 0.00 0.38 0.00 87 1014.2
20260506232117 12 0.0 0.0 0.00 0.38 0.00 87 1014.3
20260506231100 12 0.0 0.0 0.00 0.38 0.00 86 1014.4
20260506225021 12 57 0.0 3.2 0.00 0.38 0.00 85 1014.6
20260506224126 12 50 0.0 1.6 0.00 0.38 0.00 84 1014.6
20260506223109 12 43 0.0 1.6 0.00 0.38 0.00 84 1014.7
20260506222029 13 10 1.6 4.8 0.00 0.38 0.00 84 1014.9
20260506221113 13 13 3.2 6.4 0.00 0.38 0.00 84 1014.9
20260506220117 13 22 3.2 6.4 0.00 0.38 0.00 84 1015.1
20260506215036 12 25 1.6 4.8 0.00 0.38 0.38 84 1015.0
20260506214121 13 40 0.0 3.2 0.00 0.38 0.38 84 1015.1
20260506213022 13 40 0.0 1.6 0.00 0.38 0.38 83 1015.1
20260506212045 13 17 1.6 4.8 0.00 0.38 0.38 83 1015.1
20260506211129 13 25 1.6 4.8 0.00 0.38 0.38 83 1015.1
20260506210029 13 41 0.0 6.4 0.00 0.38 0.38 83 1015.1
20260506205053 13 41 3.2 9.7 0.00 0.38 0.38 82 1015.1
20260506204117 13 11 3.2 9.7 0.00 0.38 0.38 82 1015.1
20260506203037 13 4 4.8 11.3 0.00 0.38 0.38 81 1014.9
20260506202101 13 20 4.8 11.3 0.00 0.38 0.38 80 1015.0
20260506201021 13 18 3.2 9.7 0.00 0.38 0.38 79 1015.0
20260506200045 13 6 4.8 12.9 0.00 0.38 0.38 78 1015.0
20260506195109 13 15 3.2 11.3 0.00 0.38 0.38 77 1014.9
20260506194029 13 355 8.0 14.5 0.00 0.38 0.38 78 1014.8
20260506193053 13 347 6.4 12.9 0.00 0.38 0.38 79 1015.0
20260506192117 13 12 6.4 12.9 0.00 0.38 0.38 79 1015.0
20260506191058 13 9 6.4 12.9 0.00 0.38 0.38 79 1014.8
20260506190101 13 358 8.0 16.1 0.00 0.38 0.38 79 1014.8
20260506185021 14 7 9.7 14.5 0.00 0.38 0.38 78 1014.9
20260506184044 14 342 6.4 14.5 0.00 0.38 0.38 79 1014.9
20260506183108 14 350 8.0 14.5 0.00 0.38 0.38 77 1014.9
20260506182029 14 336 9.7 16.1 0.00 0.38 0.38 76 1015.0
20260506181053 15 338 6.4 14.5 0.00 0.38 0.38 75 1015.0
20260506180117 15 12 6.4 12.9 0.00 0.38 0.38 76 1014.9
20260506175038 15 346 8.0 14.5 0.00 0.38 0.38 75 1015.1
20260506174100 15 18 8.0 17.7 0.00 0.38 0.38 73 1015.3
20260506173022 15 3 9.7 17.7 0.00 0.38 0.38 74 1015.3
20260506172045 15 347 8.0 16.1 0.00 0.38 0.38 75 1015.3
20260506171109 15 29 8.0 14.5 0.00 0.38 0.38 76 1015.4
20260506170029 15 338 8.0 14.5 0.00 0.38 0.38 72 1015.3
20260506165053 16 331 9.7 17.7 0.00 0.38 0.38 70 1015.5
20260506164117 15 1 8.0 16.1 0.00 0.38 0.38 71 1015.4
20260506163037 15 2 6.4 12.9 0.00 0.38 0.38 73 1015.5
20260506162102 15 0 4.8 14.5 0.00 0.38 0.38 70 1015.4
20260506161021 15 11 4.8 11.3 0.00 0.38 0.38 73 1015.5
20260506160045 15 337 4.8 16.1 0.00 0.38 0.38 68 1015.6
20260506155109 15 1 6.4 14.5 0.00 0.38 0.38 70 1015.4
20260506154130 16 3 4.8 12.9 0.00 0.38 0.38 72 1015.6
20260506153053 16 357 8.0 16.1 0.00 0.38 0.38 71 1015.6
20260506152137 17 357 6.4 14.5 0.00 0.38 0.38 66 1015.6
20260506151037 16 3 8.0 14.5 0.00 0.38 0.38 67 1015.7
20260506150122 16 341 4.8 16.1 0.00 0.38 0.38 64 1015.9
20260506145022 16 357 4.8 12.9 0.00 0.38 0.38 65 1015.9
20260506144045 16 23 3.2 9.7 0.00 0.38 0.38 66 1016.0
20260506143109 16 5 4.8 12.9 0.00 0.38 0.38 68 1015.9
20260506142029 16 352 4.8 16.1 0.00 0.38 0.38 68 1016.1
20260506141053 16 34 6.4 12.9 0.00 0.38 0.38 66 1016.1
20260506140117 18 13 6.4 11.3 0.00 0.38 0.38 63 1016.3
20260506135038 17 359 4.8 16.1 0.00 0.38 0.38 65 1016.3
20260506134101 16 352 6.4 14.5 0.00 0.38 0.38 69 1016.2
20260506133021 17 23 6.4 14.5 0.00 0.38 0.38 67 1016.3
20260506132045 16 359 3.2 11.3 0.00 0.38 0.38 67 1016.4
20260506131130 16 15 6.4 12.9 0.00 0.38 0.38 66 1016.4
20260506130029 16 2 6.4 11.3 0.00 0.38 0.38 69 1016.4
20260506125053 16 360 4.8 12.9 0.00 0.38 0.38 69 1016.5
20260506124117 17 2 6.4 14.5 0.00 0.38 0.38 68 1016.5
20260506123037 16 6 3.2 14.5 0.00 0.38 0.38 70 1016.5
20260506122100 15 10 6.4 14.5 0.00 0.38 0.38 71 1016.7
20260506121022 16 14 4.8 14.5 0.00 0.48 0.38 69 1016.7
20260506120045 17 31 6.4 12.9 0.00 0.48 0.38 66 1016.7
20260506115229 17 358 3.2 11.3 0.00 0.48 0.38 67 1016.8
20260506114029 16 10 4.8 11.3 0.00 0.48 0.38 66 1016.9
20260506113053 16 36 3.2 9.7 0.00 0.48 0.38 69 1016.9
20260506112117 15 337 6.4 12.9 0.00 0.48 0.38 72 1017.0
20260506111036 16 19 3.2 11.3 0.00 0.48 0.38 71 1017.1
20260506105022 16 24 4.8 11.3 0.00 0.48 0.38 74 1016.9
20260506104045 16 17 4.8 9.7 0.00 0.48 0.38 73 1016.9
20260506103109 16 33 4.8 14.5 0.00 0.48 0.38 73 1017.1
20260506102029 16 54 3.2 9.7 0.00 0.48 0.38 74 1017.0
20260506101053 16 31 4.8 9.7 0.00 0.48 0.38 73 1016.9
20260506100117 16 66 3.2 9.7 0.00 0.48 0.38 71 1016.9
20260506095058 15 31 3.2 4.8 0.00 0.48 0.38 73 1016.9
20260506094141 15 40 1.6 4.8 0.00 0.48 0.38 74 1017.0
20260506093021 15 35 1.6 4.8 0.00 0.48 0.38 77 1016.8
20260506092045 13 35 1.6 3.2 0.00 0.48 0.38 84 1016.9
20260506091110 12 357 1.6 4.8 0.00 0.48 0.38 90 1016.8
20260506090049 12 38 0.0 3.2 0.00 0.48 0.38 92 1016.9
20260506085053 12 70 0.0 1.6 0.00 0.48 0.38 93 1016.8
20260506084117 12 66 0.0 1.6 0.00 0.48 0.38 94 1016.8
20260506083037 12 73 0.0 4.8 0.00 0.48 0.38 94 1016.8
20260506082101 11 102 3.2 4.8 0.00 0.48 0.38 95 1016.8
20260506081040 11 113 3.2 4.8 0.03 0.48 0.38 95 1016.7
20260506073053 11 126 4.8 9.7 0.05 0.48 0.38 95 1016.9
20260506072118 11 100 4.8 6.4 0.05 0.48 0.38 95 1016.8
20260506071037 10 106 3.2 4.8 0.03 0.46 0.36 95 1016.8
20260506070122 10 88 1.6 6.4 0.03 0.48 0.36 95 1016.6
20260506062029 10 105 3.2 4.8 0.00 0.61 0.33 95 1016.5
20260506061053 10 103 4.8 9.7 0.00 0.69 0.33 95 1016.5
20260506060117 10 84 3.2 3.2 0.03 0.71 0.33 95 1016.3
20260506051129 10 124 4.8 6.4 0.03 0.94 0.33 95 1016.2
20260506050109 10 98 3.2 4.8 0.00 0.94 0.30 95 1016.2
20260506045052 10 111 4.8 6.4 0.00 0.94 0.30 95 1016.2
20260506044117 10 131 4.8 6.4 0.00 0.94 0.30 95 1016.3
20260506043036 10 137 4.8 6.4 0.00 0.94 0.30 95 1016.2
20260506042100 10 89 1.6 4.8 0.00 0.94 0.30 95 1016.2
20260506041041 10 82 1.6 3.2 0.00 0.94 0.30 95 1016.5
20260506040045 10 80 3.2 4.8 0.00 0.94 0.30 95 1016.5
20260506035129 10 85 1.6 3.2 0.00 0.94 0.30 95 1016.5
20260506034029 10 105 3.2 6.4 0.00 0.94 0.30 95 1016.5
20260506033052 10 99 3.2 4.8 0.00 0.94 0.30 95 1016.6
20260506032117 10 86 3.2 3.2 0.00 0.94 0.30 95 1016.6
20260506031038 10 88 1.6 4.8 0.10 0.94 0.30 94 1016.7
20260506025021 10 88 1.6 3.2 0.25 0.94 0.30 94 1016.7
20260506024045 10 107 3.2 4.8 0.25 0.94 0.30 94 1016.7
20260506023129 10 111 3.2 4.8 0.25 0.94 0.30 94 1016.8
20260506022029 10 30 1.6 4.8 0.28 0.94 0.30 94 1016.8
20260506021052 11 305 3.2 6.4 0.20 0.84 0.20 94 1016.9
20260506020116 11 111 3.2 4.8 0.15 0.79 0.15 93 1016.8